Kahului, HI

5:50 AM HST on April 19, 2018 (GMT -1000)
Kahului

Weather History for PHOG - April, 2013

Change the Weather History Date:

Monday, April 29, 2013

  Actual Average Record
Temperature  
Mean Temperature 77 °F 75 °F  
Max Temperature 87 °F 83 °F 91 °F (1953)
Min Temperature 66 °F 66 °F 57 °F (1985)
Degree Days  
Heating Degree Days 0 0  
Month to date heating degree days 0 0  
Since 1 July heating degree days 0 0  
Cooling Degree Days 12 10  
Month to date cooling degree days 304 262  
Year to date cooling degree days 970 916  
Growing Degree Days 26 (Base 50)    
Moisture  
Dew Point 68 °F    
Average Humidity 72    
Maximum Humidity 93    
Minimum Humidity 51    
Precipitation  
Precipitation 0.01 in 0.03 in 1.51 in (2017)
Month to date precipitation 0.07 1.52  
Year to date precipitation 6.20 8.73  
Snow  
Snow 0.00 in - - ()
Month to date snowfall 0.0  
Since 1 July snowfall 0.0  
Snow Depth 0.00 in    
Sea Level Pressure  
Sea Level Pressure 29.99 in    
Wind  
Wind Speed 8 mph (South)    
Max Wind Speed 22 mph    
Max Gust Speed 28 mph    
Visibility 10 miles    
Events      
T = Trace of Precipitation, MM = Missing Value Source: NWS Daily Summary

Daily Weather History Graph

Daily Weather History Graph

Search for Another Location

Airport or City:

Astronomy

Apr. 29, 2013 Rise Set
Actual Time 5:56 AM HST 6:49 PM HST
Civil Twilight 5:33 AM HST 7:13 PM HST
Nautical Twilight 5:06 AM HST 7:40 PM HST
Astronomical Twilight 4:38 AM HST 8:08 PM HST
Moon 11:14 PM HST (4/29) 9:40 AM HST (4/29)
Length of Visible Light 13h 39m
Length of Day
12h 53m
Waning Gibbous, 78% of the Moon is Illuminated
Apr 29
Waning Gibbous
May 2
Last Quarter
May 9
New
May 17
First Quarter
May 24
Full

Hourly Weather History & Observations

Time (HST) Temp. Heat Index Dew Point Humidity Pressure Visibility Wind Dir Wind Speed Gust Speed Precip Events Conditions
12:54 AM 70.0 °F - 66.9 °F 90% 30.02 in 10.0 mi SSE 4.6 mph - N/A   Clear
1:54 AM 68.0 °F - 66.0 °F 93% 30.00 in 10.0 mi SSE 5.8 mph - N/A   Clear
2:54 AM 68.0 °F - 64.9 °F 90% 29.99 in 10.0 mi SSE 5.8 mph - N/A   Clear
3:54 AM 66.9 °F - 64.0 °F 90% 29.98 in 10.0 mi SSE 4.6 mph - N/A   Clear
4:54 AM 68.0 °F - 64.0 °F 87% 29.98 in 10.0 mi SE 6.9 mph - N/A   Clear
5:54 AM 66.9 °F - 64.0 °F 90% 29.99 in 10.0 mi SE 4.6 mph - N/A   Scattered Clouds
6:54 AM 70.0 °F - 66.0 °F 87% 30.00 in 10.0 mi SSE 3.5 mph - N/A   Partly Cloudy
7:54 AM 77.0 °F - 69.1 °F 76% 30.01 in 10.0 mi Calm Calm - N/A   Clear
8:54 AM 81.0 °F 83.3 °F 66.9 °F 62% 30.01 in 10.0 mi SE 4.6 mph - N/A   Partly Cloudy
9:54 AM 84.0 °F 86.3 °F 66.0 °F 55% 30.01 in 10.0 mi South 11.5 mph - N/A   Partly Cloudy
10:54 AM 86.0 °F 88.2 °F 66.0 °F 51% 30.00 in 10.0 mi South 12.7 mph 20.7 mph N/A   Scattered Clouds
11:54 AM 84.9 °F 88.8 °F 69.1 °F 59% 29.99 in 10.0 mi SSW 15.0 mph 20.7 mph N/A   Scattered Clouds
12:54 PM 84.9 °F 88.2 °F 68.0 °F 57% 29.97 in 10.0 mi South 17.3 mph 25.3 mph 0.01 in   Scattered Clouds
1:54 PM 87.1 °F 91.3 °F 69.1 °F 55% 29.95 in 10.0 mi SW 13.8 mph 25.3 mph N/A   Scattered Clouds
2:54 PM 86.0 °F 90.1 °F 69.1 °F 57% 29.94 in 10.0 mi SSW 18.4 mph 26.5 mph N/A   Scattered Clouds
3:54 PM 84.0 °F 87.0 °F 68.0 °F 58% 29.94 in 10.0 mi SSW 15.0 mph - N/A   Scattered Clouds
4:54 PM 82.0 °F 84.9 °F 68.0 °F 62% 29.94 in 10.0 mi SSW 13.8 mph - N/A   Partly Cloudy
5:54 PM 79.0 °F - 69.1 °F 72% 29.94 in 10.0 mi SSW 12.7 mph - N/A   Partly Cloudy
6:54 PM 77.0 °F - 70.0 °F 79% 29.96 in 10.0 mi SSW 10.4 mph - N/A   Partly Cloudy
7:54 PM 75.9 °F - 70.0 °F 82% 29.99 in 10.0 mi South 8.1 mph - N/A   Clear
8:54 PM 75.0 °F - 70.0 °F 84% 30.00 in 10.0 mi South 4.6 mph - N/A   Clear
9:54 PM 73.9 °F - 70.0 °F 87% 30.02 in 10.0 mi South 4.6 mph - N/A   Scattered Clouds
10:54 PM 73.0 °F - 69.1 °F 87% 30.02 in 10.0 mi SSE 4.6 mph - N/A   Clear
11:54 PM 71.1 °F - 66.9 °F 87% 30.01 in 10.0 mi SSE 6.9 mph - N/A   Clear